Weather in Mala Danylivka

Ukraine / Kharkiv Region     50°04′07″N   36°09′24″E
temp.,
°C
wind,
m/s
gust,
m/s
humid.,
%
clouds,
%
prec.,
mm/h
press.,
hPa
HPBL,
m
7 may, fri
fri700:00+9nnw4790100 2.3 1012471
03:00+9nnw368972 3.0 1013586
06:00+8nw269337 0.0 1014249
09:00+12nw22655 0.0 1015663
12:00+16wsw2341100 0.0 10152113
15:00+17sw3436100 0.0 10152407
18:00+17ssw354232 0.0 10141476
21:00+14sse385440 0.0 1014293
8 may, sat
sat800:00+12se51356100 0.0 1013486
03:00+13sse61456100 0.0 1011657
06:00+12s41268100 0.1 1010636
09:00+12s61577100 0.2 1008853
12:00+12ssw71690100 2.1 10071171
15:00+13wsw61089100 5.4 1008868
18:00+12w61084100 0.2 1010817
21:00+8wnw41182100 0.3 1012778
9 may, sun
sun900:00+7nw51180100 0.1 1014926
03:00+6nw41080100 0.1 1016750
06:00+5nw41184100 0.0 1017678
09:00+8nnw6105998 0.0 10191113
12:00+12nnw7942100 0.0 10191925
15:00+13nnw7935100 0.0 10212682
18:00+12nnw694626 0.1 10222241
21:00+9nnw395917 0.2 1025666
10 may, mon
mon1000:00+7nnw38663 0.0 1026269
03:00+6nnw39681 0.0 1027264
06:00+5n310694 0.0 1029291
09:00+11n59481 0.0 10281443
12:00+14n710375 0.0 10271903
15:00+15n811365 0.0 10251962
18:00+14n71248100 0.0 10251792
21:00+12nne71353100 0.0 10241311
11 may, tue
tue1100:00+12nne71555100 0.0 1023978
03:00+11nne71556100 0.0 1022741
06:00+10nne6156084 0.0 1022640
09:00+12ne7176192 0.0 1022820
12:00+11ne61380100 0.1 1022842
15:00+13ene61170100 0.1 10221487
18:00+15e59550 0.1 10221421
21:00+12e3870100 0.1 1023514